Regional Weather Roundup
Issued by NWS Charleston, SC

Current Version | Previous Version | Text Only | Print | Product List | Glossary Off
Versions: 1 2 3 4 5 6 7 8 9 10 11 12 13 14 15 16 17 18 19 20 21 22 23 24 25 26 27 28 29 30 31 32 33 34 35 36 37 38 39 40 41 42 43 44 45 46 47 48 49 50

841
ASUS42 KCHS 121128
RWRCHS

REGIONAL WEATHER ROUNDUP
NATIONAL WEATHER SERVICE CHARLESTON SC
600 AM EST FRI FEB 12 2016

NOTE: "FAIR" INDICATES FEW OR NO CLOUDS BELOW 12,000 FEET WITH NO
SIGNIFICANT WEATHER AND/OR OBSTRUCTIONS TO VISIBILITY.

NOT ALL STATIONS ARE QUALITY CONTROLLED BY THE NATIONAL
WEATHER SERVICE. USE DATA WITH CAUTION...ESPECIALLY
DEWPOINT OBSERVATIONS.

SCZ027-030-031-034>040-042>050-121200-
...SOUTHEAST SOUTH CAROLINA...

CITY           SKY/WX    TMP DP  RH WIND       PRES   REMARKS
N CHARLESTON   MOCLDY    45  36  70 CALM      30.15S
WATERFRONT PRK   N/A     48  42  80 VRB3      30.00F
MOUNT PLEASANT PTSUNNY   48  39  71 E5        30.15F
JOHNS ISLAND   FAIR      46  41  81 CALM      30.16R
PINOPOLIS        N/A     45  37  76 VRB2      30.07F
MONCKS CORNER  FAIR      37  32  81 CALM      30.16R
SUMMERVILLE    FAIR      41  36  81 CALM      30.16S
BEAUFORT MCAS  CLOUDY    42  40  92 CALM      30.15S
BEAUFORT ARPT  PTSUNNY   43  43 100 S3        30.14F
HILTON HEAD IS NOT AVBL
WALTERBORO     PTSUNNY   43  37  81 CALM      30.16R
ALLENDALE      FAIR      41  36  81 CALM      30.15R

...SOUTHERN MIDLANDS AND PEE DEE...

CITY           SKY/WX    TMP DP  RH WIND       PRES   REMARKS
GEORGETOWN     PTSUNNY   46  37  71 NE5       30.17S
KINGSTREE      FAIR      41  32  70 N3        30.18R
ORANGEBURG     PTCLDY    40  34  79 NE6       30.15F WCI  36
BARNWELL       FAIR      39  36  87 CALM      30.15S
AIKEN          FAIR      36  30  80 CALM      30.18R
MANNING        FAIR      39  32  75 CALM      30.17S
COLUMBIA       CLOUDY    37  26  64 N5        30.18R WCI  33
SUMTER         CLOUDY    34  28  81 NE9       30.17R WCI  26
FLORENCE       CLOUDY    33  25  72 NE10      30.21S WCI  25
MYRTLE BEACH   NOT AVBL
N MYRTLE BEACH CLOUDY    41  27  57 NE9       30.20S

$$

GAZ063-065-086>088-099>101-113>116-118-119-134>141-150-121200-
...SOUTHEAST GEORGIA...

CITY           SKY/WX    TMP DP  RH WIND       PRES   REMARKS
SAVANNAH ARPT  CLOUDY    45  42  89 CALM      30.15S
HUNTER AAF     CLOUDY    53  53  99 S7        30.12R
FORT STEWART   CLOUDY    48  46  91 CALM      30.12F
STATESBORO     CLOUDY    42  42  99 CALM      30.13F
SYLVANIA       MOSUNNY   38  38 100 CALM      30.15R
CLAXTON        CLOUDY    44  42  95 CALM      30.14S

...CSRA...CENTRAL AND FAR SOUTHEAST GEORGIA...

CITY           SKY/WX    TMP DP  RH WIND       PRES   REMARKS
THOMSON        CLOUDY    37  36  96 CALM      30.19S
AUGUSTA-BUSH   PTCLDY    37  34  89 N3        30.16R
AUGUSTA-DANIEL CLOUDY    42  32  67 CALM      30.15R
SWAINSBORO     FAIR      37  36  93 CALM      30.14S
VIDALIA        CLOUDY    46  43  87 CALM      30.13S
EASTMAN        CLOUDY    48  41  76 CALM      30.15S
HAZLEHURST     CLOUDY    58  55  89 SW7       30.12S
ALMA           CLOUDY    56  53  90 SW7       30.14S
WAYCROSS       CLOUDY    58  57  97 SW8       30.16S
JESUP          CLOUDY    57  55  94 SW5       30.16R
BAXLEY         CLOUDY    57  55  94 SW3       30.14R
BRUNSWICK      CLOUDY    54  52  94 SW7       30.19R
SAINT SIMONS   CLOUDY    53  52  96 SW8       30.18R

$$

SCZ027-028-034-036>038-045-046-048>050-GAZ119-141-121200-
...LAKE AND SUPPLEMENTAL COASTAL OBSERVATIONS...

STATION/POSITION TIME  TEMP    WIND        PRES    WAVE   SWELL
                       AIR SEA DIR/SP/G            HT/PER HT/PER/DIR
                 (UTC) (F)     (DEG/KT/KT) (MB)    (FT/S) (FT/S/D)
WINYAH BAY       1045   49      70/  7     1020.0F
LAKE MURRAY      1100   35      20/  3/  5 1021.7R
ACE BASIN NERRS  1000   42        CALM     1020.0F
FORT PULASKI     1100   51 49  190/  3/  5 1021.1
SAPELO ISLAND    1100   52     190/  6     1021.0S

$$

ANZ835-935-AMZ111-154-330-350-352-354-370-450-454-472-121200-
...C-MAN AND BUOY OBSERVATIONS...

STATION/POSITION TIME  TEMP    WIND        PRES    WAVE   SWELL
                       AIR SEA DIR/SP/G            HT/PER HT/PER/DIR
                 (UTC) (F)     (DEG/KT/KT) (MB)    (FT/S) (FT/S/D)
BUOY 41004       1050   59 69  240/ 16/ 17 1020.6R   3/ 6   2/ 6
BUOY 41008       1050   54 52  220/ 14/ 16 1021.8R   3/ 6
FOLLY BEACH CMAN 1100   49      60/  8/  9 1021.0S
CAPERS NEARSHORE 1008   50      60/ 10/ 12 1020.9F
FRIPP NEARSHORE  1000   50     250/  4/  4 1020.4S


STATION/POSITION TIME  TEMP    WIND        PRES    WAVE   SWELL
                       AIR SEA DIR/SP/G            HT/PER HT/PER/DIR
                 (UTC) (F)     (DEG/KT/KT) (MB)    (FT/S) (FT/S/D)
5E ST. MARYS GA  1021      56                N/A     2/ 5
FRYING PAN BUOY  1100   52 57   60/ 12/ 16 1022.3F
BUOY 41025       1050   40 61   10/ 12/ 17 1025.4R   3/ 8   2/100/ 8
CAPE LOOKOUT NC  NOT AVBL
BUOY 41002       1050   56 68  110/  6/  8   N/A     5/ 8   5/ 8
BUOY 41010       1020   67 72              1024.7R
ST AUGUSTINE FL  1100   50 56  210/  5/  6 1024.5R


$$




USA.gov is the U.S. government's official web portal to all federal, state and local government web resources and services.